| time (UTC) | temp C | wind direction | speed KPH | gust KPH | rain 1hr cm | rain 24hr cm | rain mn cm | humidity % | barometer mb |
| 20260904175716 | 13 | 227 | 8.0 | 12.9 | 0.00 | 0.00 | 0.00 | 67 | 1019.7 |
| 20260904173717 | 12 | 159 | 4.8 | 8.0 | 0.00 | 0.00 | 0.00 | 69 | 1019.5 |
| 20260904171716 | 12 | 203 | 1.6 | 6.4 | 0.00 | 0.00 | 0.00 | 69 | 1019.2 |
| 20260904170717 | 12 | 229 | 3.2 | 6.4 | 0.00 | 0.00 | 0.00 | 68 | 1019.2 |
| 20260904165717 | 12 | 199 | 1.6 | 9.7 | 0.00 | 0.00 | 0.00 | 69 | 1019.2 |
| 20260904164719 | 12 | 205 | 0.0 | 0.0 | 0.00 | 0.00 | 0.00 | 69 | 1019.1 |
| 20260904161816 | 12 | 214 | 3.2 | 4.8 | 0.00 | 0.00 | 0.00 | 69 | 1018.8 |
| 20260904155816 | 11 | 150 | 1.6 | 3.2 | 0.00 | 0.00 | 0.00 | 68 | 1018.8 |
| 20260904153919 | 11 | 157 | 0.0 | 0.0 | 0.00 | 0.00 | 0.00 | 69 | 1018.7 |
| 20260904152917 | 11 | 192 | 1.6 | 3.2 | 0.00 | 0.00 | 0.00 | 70 | 1018.9 |
| 20260904151917 | 11 | 182 | 0.0 | 3.2 | 0.00 | 0.00 | 0.00 | 70 | 1018.8 |
| 20260904150917 | 11 | 165 | 3.2 | 6.4 | 0.00 | 0.00 | 0.00 | 70 | 1018.7 |
| 20260904145917 | 11 | 209 | 1.6 | 4.8 | 0.00 | 0.00 | 0.00 | 69 | 1018.7 |
| 20260904144919 | 11 | 179 | 3.2 | 6.4 | 0.00 | 0.00 | 0.00 | 68 | 1018.6 |
| 20260904144016 | 11 | 184 | 0.0 | 3.2 | 0.00 | 0.00 | 0.00 | 68 | 1018.6 |
| 20260904142016 | 11 | 178 | 6.4 | 11.3 | 0.00 | 0.00 | 0.00 | 68 | 1018.3 |
| 20260904141017 | 11 | 177 | 4.8 | 8.0 | 0.00 | 0.00 | 0.00 | 68 | 1018.4 |
| 20260904140019 | 11 | 212 | 1.6 | 3.2 | 0.00 | 0.00 | 0.00 | 67 | 1018.3 |
| 20260904134018 | 11 | 181 | 1.6 | 4.8 | 0.00 | 0.00 | 0.00 | 67 | 1018.3 |
| 20260904133017 | 11 | 170 | 3.2 | 4.8 | 0.00 | 0.00 | 0.00 | 67 | 1018.0 |
| 20260904132018 | 11 | 157 | 1.6 | 3.2 | 0.00 | 0.00 | 0.00 | 67 | 1018.0 |
| 20260904130116 | 11 | 177 | 6.4 | 9.7 | 0.00 | 0.00 | 0.00 | 67 | 1017.9 |
| 20260904124117 | 11 | 180 | 0.0 | 1.6 | 0.00 | 0.00 | 0.00 | 66 | 1017.8 |
| 20260904123116 | 11 | 167 | 3.2 | 3.2 | 0.00 | 0.00 | 0.00 | 68 | 1017.8 |
| 20260904122116 | 11 | 168 | 3.2 | 4.8 | 0.00 | 0.00 | 0.00 | 68 | 1017.8 |
| 20260904121120 | 11 | 180 | 4.8 | 6.4 | 0.00 | 0.00 | 0.00 | 67 | 1017.8 |
| 20260904120217 | 11 | 180 | 3.2 | 4.8 | 0.00 | 0.00 | 0.00 | 68 | 1017.8 |
| 20260904115219 | 11 | 180 | 0.0 | 4.8 | 0.00 | 0.00 | 0.00 | 67 | 1017.6 |
| 20260904114316 | 11 | 180 | 0.0 | 1.6 | 0.00 | 0.00 | 0.00 | 67 | 1017.8 |
| 20260904112318 | 11 | 180 | 0.0 | 1.6 | 0.00 | 0.00 | 0.00 | 65 | 1017.8 |
| 20260904111335 | 11 | 162 | 0.0 | 0.0 | 0.00 | 0.00 | 0.00 | 65 | 1017.9 |
| 20260904110317 | 11 | 163 | 0.0 | 1.6 | 0.00 | 0.00 | 0.00 | 64 | 1017.8 |
| 20260904105317 | 11 | 172 | 0.0 | 0.0 | 0.00 | 0.00 | 0.00 | 64 | 1017.7 |
| 20260904104317 | 11 | 180 | 0.0 | 0.0 | 0.00 | 0.00 | 0.00 | 63 | 1017.6 |
| 20260904103318 | 11 | 180 | 0.0 | 0.0 | 0.00 | 0.00 | 0.00 | 64 | 1017.6 |
| 20260904102415 | 11 | 180 | 0.0 | 0.0 | 0.00 | 0.00 | 0.00 | 63 | 1017.6 |
| 20260904101433 | 11 | 200 | 0.0 | 3.2 | 0.00 | 0.00 | 0.00 | 63 | 1017.4 |
| 20260904100517 | 11 | 225 | 0.0 | 1.6 | 0.00 | 0.00 | 0.00 | 64 | 1017.5 |
| 20260904095516 | 11 | 170 | 1.6 | 3.2 | 0.00 | 0.00 | 0.00 | 63 | 1017.4 |
| 20260904094518 | 11 | 225 | 0.0 | 3.2 | 0.00 | 0.00 | 0.00 | 64 | 1017.4 |
| 20260904092616 | 12 | 180 | 0.0 | 0.0 | 0.00 | 0.00 | 0.00 | 65 | 1017.5 |
| 20260904091617 | 12 | 201 | 0.0 | 0.0 | 0.00 | 0.00 | 0.00 | 64 | 1017.6 |
| 20260904090616 | 12 | 180 | 0.0 | 0.0 | 0.00 | 0.00 | 0.00 | 63 | 1017.6 |
| 20260904085616 | 12 | 173 | 3.2 | 4.8 | 0.00 | 0.00 | 0.00 | 64 | 1017.6 |
| 20260904084619 | 12 | 184 | 3.2 | 6.4 | 0.00 | 0.00 | 0.00 | 62 | 1017.6 |
| 20260904083616 | 12 | 169 | 3.2 | 4.8 | 0.00 | 0.00 | 0.00 | 63 | 1017.6 |
| 20260904081617 | 12 | 180 | 1.6 | 6.4 | 0.00 | 0.00 | 0.00 | 62 | 1017.6 |
| 20260904080617 | 12 | 173 | 4.8 | 8.0 | 0.00 | 0.00 | 0.00 | 64 | 1017.9 |
| 20260904075616 | 12 | 179 | 3.2 | 6.4 | 0.00 | 0.00 | 0.00 | 63 | 1017.7 |
| 20260904074617 | 12 | 172 | 4.8 | 8.0 | 0.00 | 0.00 | 0.00 | 64 | 1017.9 |
| 20260904073617 | 12 | 180 | 3.2 | 3.2 | 0.00 | 0.00 | 0.00 | 65 | 1017.9 |
| 20260904072619 | 12 | 167 | 6.4 | 8.0 | 0.00 | 0.00 | 0.00 | 64 | 1017.9 |
| 20260904070618 | 12 | 180 | 0.0 | 3.2 | 0.00 | 0.00 | 0.00 | 62 | 1018.2 |
| 20260904065715 | 12 | 180 | 0.0 | 0.0 | 0.00 | 0.00 | 0.00 | 62 | 1018.2 |
| 20260904064813 | 12 | 180 | 0.0 | 0.0 | 0.00 | 0.00 | 0.00 | 60 | 1018.2 |
| 20260904063816 | 12 | 202 | 0.0 | 0.0 | 0.00 | 0.00 | 0.00 | 60 | 1018.3 |
| 20260904062815 | 12 | 202 | 0.0 | 0.0 | 0.00 | 0.00 | 0.00 | 59 | 1018.4 |
| 20260904061914 | 12 | 202 | 0.0 | 0.0 | 0.00 | 0.00 | 0.00 | 59 | 1018.4 |
| 20260904055914 | 12 | 225 | 0.0 | 0.0 | 0.00 | 0.00 | 0.00 | 60 | 1018.5 |
| 20260904055013 | 12 | 225 | 0.0 | 0.0 | 0.00 | 0.00 | 0.00 | 60 | 1018.6 |
| 20260904054014 | 12 | 225 | 0.0 | 0.0 | 0.00 | 0.00 | 0.00 | 59 | 1018.6 |
| 20260904053113 | 12 | 225 | 0.0 | 0.0 | 0.00 | 0.00 | 0.00 | 59 | 1018.5 |
| 20260904052113 | 12 | 225 | 0.0 | 0.0 | 0.00 | 0.00 | 0.00 | 59 | 1018.7 |
| 20260904051114 | 12 | 180 | 0.0 | 0.0 | 0.00 | 0.00 | 0.00 | 60 | 1018.8 |
| 20260904050213 | 11 | 180 | 0.0 | 0.0 | 0.00 | 0.00 | 0.00 | 60 | 1018.8 |
| 20260904045215 | 11 | 180 | 0.0 | 0.0 | 0.00 | 0.00 | 0.00 | 59 | 1018.8 |
| 20260904044213 | 11 | 180 | 0.0 | 0.0 | 0.00 | 0.00 | 0.00 | 61 | 1018.7 |
| 20260904042214 | 11 | 157 | 0.0 | 0.0 | 0.00 | 0.00 | 0.00 | 61 | 1018.7 |
| 20260904041213 | 11 | 157 | 0.0 | 0.0 | 0.00 | 0.00 | 0.00 | 61 | 1018.6 |
| 20260904040213 | 11 | 157 | 0.0 | 0.0 | 0.00 | 0.00 | 0.00 | 60 | 1018.5 |
| 20260904035214 | 12 | 157 | 0.0 | 0.0 | 0.00 | 0.00 | 0.00 | 59 | 1018.5 |
| 20260904034213 | 12 | 157 | 0.0 | 0.0 | 0.00 | 0.00 | 0.00 | 60 | 1018.5 |
| 20260904032214 | 12 | 157 | 0.0 | 3.2 | 0.00 | 0.00 | 0.00 | 60 | 1018.4 |
| 20260904030314 | 12 | 157 | 0.0 | 0.0 | 0.00 | 0.00 | 0.00 | 59 | 1018.5 |
| 20260904025313 | 12 | 157 | 0.0 | 0.0 | 0.00 | 0.00 | 0.00 | 60 | 1018.4 |
| 20260904024314 | 12 | 157 | 0.0 | 0.0 | 0.00 | 0.00 | 0.00 | 60 | 1018.5 |
| 20260904023314 | 13 | 158 | 1.6 | 4.8 | 0.00 | 0.00 | 0.00 | 60 | 1018.3 |
| 20260904022412 | 13 | 157 | 0.0 | 3.2 | 0.00 | 0.00 | 0.00 | 58 | 1018.5 |
| 20260904021430 | 13 | 194 | 0.0 | 4.8 | 0.00 | 0.00 | 0.00 | 58 | 1018.6 |
| 20260904015515 | 13 | 157 | 0.0 | 1.6 | 0.00 | 0.00 | 0.00 | 60 | 1018.7 |
| 20260904014513 | 13 | 217 | 1.6 | 4.8 | 0.00 | 0.00 | 0.00 | 59 | 1018.6 |
| 20260904013515 | 14 | 165 | 0.0 | 3.2 | 0.00 | 0.00 | 0.00 | 59 | 1018.6 |
| 20260904011514 | 14 | 174 | 0.0 | 4.8 | 0.00 | 0.00 | 0.00 | 57 | 1018.7 |
| 20260904010514 | 14 | 169 | 0.0 | 1.6 | 0.00 | 0.00 | 0.00 | 58 | 1018.8 |
| 20260904005529 | 14 | 225 | 0.0 | 1.6 | 0.00 | 0.00 | 0.00 | 59 | 1018.8 |
| 20260904004513 | 15 | 211 | 0.0 | 0.0 | 0.00 | 0.00 | 0.00 | 58 | 1018.8 |
| 20260904003528 | 15 | 165 | 3.2 | 6.4 | 0.00 | 0.00 | 0.00 | 57 | 1018.9 |
| 20260904002613 | 15 | 214 | 4.8 | 8.0 | 0.00 | 0.00 | 0.00 | 55 | 1019.0 |
| 20260904001617 | 15 | 161 | 3.2 | 6.4 | 0.00 | 0.00 | 0.00 | 54 | 1018.9 |
| 20260904000614 | 15 | 180 | 0.0 | 1.6 | 0.00 | 0.00 | 0.00 | 54 | 1019.0 |
| 20260903235613 | 16 | 157 | 1.6 | 4.8 | 0.00 | 0.00 | 0.00 | 55 | 1019.1 |
| 20260903233716 | 16 | 224 | 0.0 | 0.0 | 0.00 | 0.00 | 0.00 | 53 | 1019.3 |
| 20260903232813 | 16 | 176 | 4.8 | 9.7 | 0.00 | 0.00 | 0.00 | 53 | 1019.3 |
| 20260903231814 | 16 | 258 | 1.6 | 4.8 | 0.00 | 0.00 | 0.00 | 53 | 1019.3 |
| 20260903230829 | 16 | 196 | 6.4 | 8.0 | 0.00 | 0.00 | 0.00 | 50 | 1019.4 |
| 20260903225917 | 16 | 230 | 3.2 | 6.4 | 0.00 | 0.00 | 0.00 | 49 | 1019.4 |
| 20260903224915 | 17 | 196 | 1.6 | 3.2 | 0.00 | 0.00 | 0.00 | 49 | 1019.5 |
| 20260903223914 | 17 | 225 | 0.0 | 3.2 | 0.00 | 0.00 | 0.00 | 49 | 1019.5 |
| 20260903223013 | 17 | 168 | 6.4 | 11.3 | 0.00 | 0.00 | 0.00 | 49 | 1019.5 |
| 20260903222013 | 17 | 173 | 6.4 | 11.3 | 0.00 | 0.00 | 0.00 | 48 | 1019.5 |
| 20260903221013 | 17 | 154 | 4.8 | 9.7 | 0.00 | 0.00 | 0.00 | 48 | 1019.5 |
| 20260903220013 | 17 | 189 | 1.6 | 6.4 | 0.00 | 0.00 | 0.00 | 49 | 1019.6 |
| 20260903215016 | 17 | 222 | 6.4 | 11.3 | 0.00 | 0.00 | 0.00 | 48 | 1019.7 |
| 20260903214015 | 17 | 169 | 3.2 | 6.4 | 0.00 | 0.00 | 0.00 | 47 | 1019.5 |
| 20260903213015 | 17 | 235 | 1.6 | 6.4 | 0.00 | 0.00 | 0.00 | 48 | 1019.6 |
| 20260903212013 | 17 | 282 | 1.6 | 6.4 | 0.00 | 0.00 | 0.00 | 48 | 1019.5 |
| 20260903210113 | 17 | 181 | 1.6 | 4.8 | 0.00 | 0.00 | 0.00 | 47 | 1019.7 |
| 20260903205212 | 17 | 197 | 4.8 | 8.0 | 0.00 | 0.00 | 0.00 | 47 | 1019.7 |
| 20260903204214 | 17 | 177 | 3.2 | 6.4 | 0.00 | 0.00 | 0.00 | 48 | 1019.9 |
| 20260903202314 | 17 | 152 | 3.2 | 8.0 | 0.00 | 0.00 | 0.00 | 45 | 1019.9 |
| 20260903200312 | 17 | 180 | 0.0 | 0.0 | 0.00 | 0.00 | 0.00 | 44 | 1019.9 |
| 20260903195315 | 17 | 197 | 1.6 | 8.0 | 0.00 | 0.00 | 0.00 | 42 | 1020.3 |
| 20260903194313 | 17 | 181 | 1.6 | 3.2 | 0.00 | 0.00 | 0.00 | 40 | 1020.2 |
| 20260903192316 | 18 | 168 | 3.2 | 6.4 | 0.00 | 0.00 | 0.00 | 37 | 1020.4 |
| 20260903191413 | 18 | 160 | 1.6 | 3.2 | 0.00 | 0.00 | 0.00 | 36 | 1020.4 |
| 20260903190415 | 18 | 162 | 8.0 | 11.3 | 0.00 | 0.00 | 0.00 | 34 | 1020.6 |
| 20260903185414 | 17 | 135 | 3.2 | 4.8 | 0.00 | 0.00 | 0.00 | 32 | 1020.7 |
| 20260903184413 | 17 | 149 | 4.8 | 8.0 | 0.00 | 0.00 | 0.00 | 33 | 1020.7 |
| 20260903183513 | 18 | 179 | 8.0 | 14.5 | 0.00 | 0.00 | 0.00 | 32 | 1020.7 |
| 20260903182513 | 18 | 220 | 1.6 | 4.8 | 0.00 | 0.00 | 0.00 | 33 | 1020.8 |
| 20260903181516 | 17 | 246 | 4.8 | 6.4 | 0.00 | 0.00 | 0.00 | 32 | 1020.9 |